STARLINK-35661, 66387

Orbit data source: Space-Track

STARLINK-35661, 66387 is a payload satellite owned by SpaceX/Seattle (US) in LEO that was launched on Sat, 08 Nov 2025 UTC via an FALCON 9 launch vehicle from the Air Force Eastern Test Range (AFETR). Payload-class satellites include a variety of spacecraft equipped with specific instruments for various scientific and technological missions. These include communications satellites like Starlink; space stations such as the ISS; scientific satellites like the Hubble; Earth observation satellites from companies like Planet Labs, Umbra, and HawkEye 360; GPS; miniature CubeSats for education and research; and military/defense satellites.

Loading next visibility...
Identifier
66387, 2025-257H
Orbit
LEO
Country
Flag of USUS
Related business
Manufacturer
SpaceX/Seattle
Mission
Operational Commercial Communications
Bus & Motor
STARLINK V2MO, Unknown motor
Mass
575 kg wet, ~530 kg dry
Launch date (UTC)
2025-11-08 (7 months ago)
Launch vehicle
FALCON 9
Launch site
Air Force Eastern Test Range (AFETR)
Object type
Payload
Rocket body
Debris
Shape & HBR
Box + 2 Pan, 17.7 m
Radar Cross Section
36.964 m², Large (>1 m²)

Expand to show TLE details & history
Last TLE update: 1 day ago

TLE from 1 day ago
0 STARLINK-35661
1 66387U 25257H   26170.53725912  .00022892  00000-0  68621-3 0  9990
2 66387  53.1604 102.0540 0001279  90.8672 269.2477 15.34416880 35357
Epoch: 2026-06-19T12:53Z
TLE epoch observation values (Epoch: 2026-06-19T12:53:39.187Z)
Latitude
-0.00006°
Longitude
0.87586°
Altitude
463.566 km
Speed
7.636 km/s
True Right ascension
06h 48m 12s
True Declination
0° 00' 00"
Sunlit
Object was in daylight at epoch
Visualization orbit readout
Latitude
Unknown
Longitude
Unknown
Altitude
Unknown
Speed
Unknown
Apparent Right ascension
Unknown
Apparent Declination
Unknown
Sunlit
N/A
Visualization observer readout
Local Sidereal Time
07:18:07
Azimuth
Unknown
Elevation
Unknown
Doppler factor
Unknown
Orbital elements
Apogee altitude
463.785 km
Perigee altitude
462.035 km
Semi-major axis
6,841.047 km
Eccentricity
0.00013
Inclination
53.1604°
RAAN
102.054°
Arg. of periapsis
90.8672°
True anomaly
269.23305°
Mean anomaly
269.2477°
Eccentric anomaly
269.24037°
Mean motion
3.83583 °/min
Orbital period
93.85 mins
BSTAR
0.00068621
Loading maneuver chart data...
Computing Atmospheric mass density...
Loading historical data...
Loading historical data...
Loading historical data...
Loading historical data...
Loading historical data...
Loading historical data...
Loading historical data...

Documentation

Showing up to 5 results
|